Location: Capvern
(43.1036°N, 0.3160°E)
Time: 11:18:32
(UTC+00:00)

Cosmos 489 Rocket - Pass Details

Date: 02 June 2022
Orbit: 952 x 983 km, 74.0° (Epoch: 01 July)

Event Time Altitude Azimuth Distance (km) Brightness Sun altitude
Rises 02:39:21 0° 339° (NNW) 3,648 7.9 -14.8°
Reaches altitude 10° 02:41:53 10° 339° (NNW) 2,702 7.2 -14.5°
Maximum altitude 02:48:09 89° 258° (WSW) 972 4.5 -13.8°
Drops below altitude 10° 02:54:26 10° 162° (SSE) 2,706 6.5 -13.0°
Sets 02:56:58 0° 162° (SSE) 3,654 7.2 -12.7°
